Hourly Data Report for October 03, 2014

All times are specified in Local Standard Time (LST). Add 1 hour to adjust for Daylight Saving Time where and when it is observed.

POND INLET A
NUNAVUT

72°41'22.000" N
77°58'08.000" W
61.60 m
2403206
71095
YIO

Download Data

Hourly Data (October 2014)
Hourly Data Report for October 3, 2014
Temp Definition
°C
Dew Point Temp Definition
°C
Rel Hum Definition
%
Wind Dir Definition
10's deg

Wind Spd Definition
km/h
Visibility Definition
km
Stn Press Definition
kPa
Hmdx Definition


Wind Chill Definition


Weather Definition


TIME
00:00 Legend Double Dagger -5.7 -8.1 83 15 9 16.1 100.60   -10 LegendNANA
01:00 Legend Double Dagger -6.4 -8.4 86 16 13 16.1 100.62   -12 LegendNANA
02:00 Legend Double Dagger -5.9 -8.2 84 15 15 16.1 100.66   -12 LegendNANA
03:00 Legend Double Dagger -6.0 -8.6 82 14 15 16.1 100.70   -12 LegendNANA
04:00 Legend Double Dagger -6.0 -8.3 84 16 17 16.1 100.69   -12 LegendNANA
05:00 Legend Double Dagger -6.3 -8.4 85 17 17 16.1 100.70   -13 LegendNANA
06:00 Legend Double Dagger -6.4 -8.5 85 16 15 16.1 100.72   -12 LegendNANA
07:00 Legend Double Dagger -6.6 -8.7 85 16 17 16.1 100.73   -13 LegendNANA
08:00 Legend Double Dagger -6.2 -8.5 84 15 17 16.1 100.73   -12 LegendNANA
09:00 Legend Double Dagger -6.3 -8.4 85 15 17 16.1 100.76   -13 LegendNANA
10:00 Legend Double Dagger -6.1 -8.7 82 14 18 16.1 100.76   -13 LegendNANA
11:00 Legend Double Dagger -6.0 -8.3 84 15 18 16.1 100.77   -12 LegendNANA
12:00 Legend Double Dagger -6.0 -8.3 84 15 18 16.1 100.79   -12 LegendNANA
13:00 Legend Double Dagger -5.6 -8.1 83 15 21 16.1 100.81   -12 LegendNANA
14:00 Legend Double Dagger -5.5 -7.9 83 17 17 16.1 100.85   -12 LegendNANA
15:00 Legend Double Dagger -5.9 -8.2 84 17 18 16.1 100.87   -12 LegendNANA
16:00 Legend Double Dagger -6.1 -8.5 83 15 18 16.1 100.91   -13 LegendNANA
17:00 Legend Double Dagger -5.9 -8.5 82 15 15 16.1 100.93   -12 LegendNANA
18:00 Legend Double Dagger -5.7 -8.0 84 16 17 16.1 100.97   -12 LegendNANA
19:00 Legend Double Dagger -6.2 -8.6 83 17 18 16.1 101.00   -13 LegendNANA
20:00 Legend Double Dagger -6.6 -8.9 84 15 21 16.1 101.01   -14 LegendNANA
21:00 Legend Double Dagger -6.5 -8.8 84 15 18 16.1 101.03   -13 LegendNANA
22:00 Legend Double Dagger -6.4 -8.7 84 15 18 16.1 101.03   -13 LegendNANA
23:00 Legend Double Dagger -6.2 -8.5 84 16 18 16.1 101.04   -13 LegendNANA

Notes on Data Quality.

Legend

  • E = Estimated
  • M = Missing
  • NA = Not Available
  • ‡ = Partner data that is not subject to review by the National Climate Archives
Date modified: